Terminal Aerodrome Forecast
Issued by NWS

Home | Current Version | Previous Version | Text Only | Print | Product List | Glossary On
Versions: 1 2 3 4 5 6 7 8 9 10 11 12 13 14 15 16 17 18 19 20 21 22 23 24 25 26 27 28 29 30 31
000
FTUS43 KICT 222112 AAE
TAFSLN
TAF AMD
KSLN 222112Z 2221/2318 32030G39KT P6SM VCSH FEW025 OVC035
      TEMPO 2221/2223 4SM -SNRA BKN025
     FM222300 32025G33KT P6SM SCT060
     FM230100 31016G24KT P6SM SCT150
     FM231000 31011KT P6SM FEW250=

USA.gov is the U.S. government's official web portal to all federal, state and local government web resources and services.